User: anonymous   Login
Location: Caltech
(34.1382°N, 118.1253°W)
Time: 06:29:31
(UTC-07:00)
Language:

PANSAT - Orbit

View from above orbital plane
View from above orbital plane
View from above satellite
View from above satellite

Ground track
Ground track

The orbit data is extracted from the following two-line orbital elements,

1 25520U 98064B   16149.87266151  .00001106  00000-0  31800-4 0  9992
2 25520  28.4574  80.6192 0005737  64.1516 295.9670 15.27682507975447
Epoch (UTC): 28 May 2016 20:56:37
Eccentricity: 0.0005737
inclination: 28.4574°
perigee height: 479 km
apogee height: 486 km
right ascension of ascending node: 80.6192°
argument of perigee: 64.1516°
revolutions per day: 15.27682507
mean anomaly at epoch: 295.9670°
orbit number at epoch: 97544

The dashed part of the orbit path shows where the satellite is in the earth's shadow,  

DLR